Simultaneous Nadir Overpasses (SNOs) Predictions

Prediction of SNOs between GOES-15 and METOP-C Satellite Orbit:

Table of predicted SNOs for the next 14.0 days since TLE Epoch: 9/22/2024
Index Date Time (GOES-15) GOES-15 Lat,Lon METOP-C Lat,Lon Distance(km) Time Diff (sec)
1 09/23/2024 05:27:13 -0.29, 61.24 -0.14, 60.59 74.07 80
2 09/24/2024 05:09:14 -0.27, 61.24 -1.23, 65.59 495.68 80
3 09/25/2024 17:25:35 0.29, 61.37 0.21, 60.99 43.11 80
4 09/28/2024 05:26:29 -0.29, 61.23 -0.36, 61.41 21.42 80
5 09/30/2024 17:24:50 0.29, 61.36 0.39, 61.83 52.54 80
6 10/02/2024 05:41:02 -0.31, 61.23 0.59, 57.26 453.13 80
7 10/03/2024 05:23:03 -0.30, 61.23 -0.52, 62.26 116.49 80
8 10/04/2024 17:42:03 0.31, 61.36 -0.54, 57.67 421.48 80
9 10/05/2024 17:19:23 0.30, 61.37 0.57, 62.66 147.39 41
